Weather Roundup
Issued by NWS

Home | Current Version | Previous Version | Text Only | Print | Product List | Glossary On
Versions: 1 2 3 4 5 6 7 8 9 10 11 12 13 14 15 16 17 18 19 20 21 22 23 24 25 26 27 28 29 30 31 32 33 34 35 36 37 38 39 40 41 42 43 44 45 46 47 48 49 50
000
NZUS93 KARX 011610
HRRWXR

CURRENT HOURLY OBSERVATIONS ACROSS
MUCH OF THE UPPER MISSISSIPPI VALLEY
NATIONAL WEATHER SERVICE LA CROSSE WI
1100 AM CDT SAT AUG 01 2015


...SOUTHEAST MINNESOTA...


CITY           SKY/WX    TMP DP  RH WIND       PRES   REMARKS
ROCHESTER      SUNNY     75  66  73 W6        30.01R
ROCHESTER/MAYO FAIR      73  63  68 NW5       30.00S
WINONA         SUNNY     77  61  57 CALM      29.97S
AUSTIN         SUNNY     77  64  65 W10       30.01S
ALBERT LEA     SUNNY     75  64  69 NW7       30.01S
DODGE CENTER   SUNNY     73  64  73 CALM      30.01R
PRESTON        MOSUNNY   74  63  69 NW5       30.01S
OWATONNA       SUNNY     75  64  69 CALM      30.00S
FARIBAULT      SUNNY     75  64  69 CALM      30.00R
$$

...ELSEWHERE IN MINNESOTA...


CITY           SKY/WX    TMP DP  RH WIND       PRES   REMARKS
MINNEAPOLIS    MOSUNNY   79  57  46 CALM      29.97S
INTNL FALLS    SUNNY     74  53  48 W13       29.87F
DULUTH         MOSUNNY   76  51  41 W13       29.92S
RED WING       SUNNY     79  61  53 S5        29.96S
REDWOOD FALLS  SUNNY     77  65  66 SE3       29.98F
MANKATO        SUNNY     73  63  68 CALM      29.99F
WORTHINGTON    PTSUNNY   77  66  69 SW13      30.02F
FAIRMONT       SUNNY     81  64  57 W7        30.00F
$$

...SOUTHWEST WISCONSIN...


CITY           SKY/WX    TMP DP  RH WIND       PRES   REMARKS
LA CROSSE      SUNNY     79  57  46 W3        29.97R
PRAIRIE DU CHI SUNNY     81  61  51 W9        29.98S
BOSCOBEL       SUNNY     81  63  54 SW8       29.98S
LONE ROCK      MOSUNNY   79  60  52 N5        29.99S
PLATTEVILLE    MOSUNNY   78  63  58 W9        30.00F
FORT MC COY    SUNNY     78  48  34 W3        29.98S
CAMP DOUGLAS   MOSUNNY   77  57  50 N7        29.98S
VIROQUA        FAIR      76  62  60 SW5       30.00S
WIS DELLS      PTSUNNY   76  51  41 CALM      29.98F
$$

...ELSEWHERE IN WISCONSIN...


CITY           SKY/WX    TMP DP  RH WIND       PRES   REMARKS
MILWAUKEE      PTSUNNY   80  51  36 NW13      29.96S
MADISON        PTSUNNY   76  59  55 CALM      29.99R
GREEN BAY      SUNNY     76  54  46 NW14      29.92S
EAU CLAIRE     SUNNY     77  53  43 W3        29.96S
BLACK RVR FLS  FAIR      77  50  38 NW3       29.97S
MEDFORD        SUNNY     73  53  49 NW8       29.97S
WAUSAU         SUNNY     76  48  37 NW13G22   29.94S
WIS RAPIDS     MOSUNNY   78  50  37 NW8       29.98S
MARSHFIELD     MOSUNNY   76  48  37 N13       29.97S
RICE LAKE      SUNNY     74  53  47 W7        29.98S
$$

...NORTHEAST IOWA...


CITY           SKY/WX    TMP DP  RH WIND       PRES   REMARKS
DECORAH        SUNNY     77  64  65 W8G17     30.00R
MASON CITY     SUNNY     82  70  66 W12       30.03R
CHARLES CITY   MOSUNNY   79  72  78 W10G18    30.02R
OELWEIN        SUNNY     81  68  65 W12       30.02R
$$

...ELSEWHERE IN IOWA...


CITY           SKY/WX    TMP DP  RH WIND       PRES   REMARKS
DES MOINES     CLOUDY    81  67  62 SW8       30.03S
IOWA CITY      MOSUNNY   81  64  56 SW13G18   30.03S
FORT DODGE     PTSUNNY   82  72  69 SW8       30.03F
$$

...NORTHERN ILLINOIS...


CITY           SKY/WX    TMP DP  RH WIND       PRES   REMARKS
CHICAGO-OHARE  MOSUNNY   80  56  43 W14       29.99R
CHICAGO-MIDWAY MOSUNNY   83  54  36 W15       29.99R
MOLINE         SUNNY     83  62  49 SW9       30.01F
ROCKFORD       MOSUNNY   80  58  46 W6        30.02R
PEORIA         SUNNY     83  61  47 SW8       30.04S
$$

NOTE: "FAIR" INDICATES FEW OR NO CLOUDS BELOW 12,000 FEET WITH NO
SIGNIFICANT WEATHER AND/OR OBSTRUCTIONS TO VISIBILITY. WIND
SPEEDS ARE IN MILES-PER-HOUR.



USA.gov is the U.S. government's official web portal to all federal, state and local government web resources and services.